date:2026-05-13T19:04:59+00:00
validtle:1
satid:68293
launchyear:2026
epoch:26102.55435095
epochday:102
tleage:31
tleclassification:U
active:0
name:ELECTRON
meananomly:257.8842
meanmotion:15.4244
rightascension:0.0000
declination:0.0000
semimajoraxis:6817.0382816445
altitudeatperigee:338
altitudeatapogee:540
inclination:50.2885
eccentricity:0.0148674
argumentofperigree:103.8715
nickname:ELECTRON
idesg:26056C  
cosparid:2026-056C
altkm:462.19678154024
velkms:7.6241870170873
velkmh:27447
onumepoch:352
onumnow:5911.27
otype:98
otypedesc:Inactive TLE
status:98
timestamp:2026-04-12T13:18:16+00:00
nowjuliandate:2461174.2951357
nowepochdate:26133.7951273148
TLE:
ELECTRON KICK STAGE R/B
1 68293U 26056C   26102.55435095  .00063141  00000+0  95054-3 0  9994
2 68293  50.2885 292.9943 0148674 103.8715 257.8842 15.42443828  3528